Location: München
(48.1351°N, 11.5820°E)
Time: 20:11:04
(UTC+02:00)

ISS - Pass Details

Date: 19 May 2021
Orbit: 417 x 422 km, 51.6° (Epoch: 16 June)

Event Time Altitude Azimuth Distance (km) Brightness Sun altitude
Rises 23:42:15 0° 282° (WNW) 2,366 0.5 -19.1°
Reaches altitude 10° 23:44:24 10° 289° (WNW) 1,503 -0.4 -19.2°
Maximum altitude 23:47:40 44° 3° (N) 594 -2.6 -19.4°
Enters shadow 23:50:21 14° 74° (ENE) 1,287 -1.3 -19.6°
